Terug naar catalogus

NOAA 16 DEB

ActiefPO
NORAD 41379·DEBRIS·🇺🇸 United States

Gelanceerd Sep 21, 2000 vanaf Vandenberg Space Force Base

Loading…

Volgende Passages (komende 24 uur)

TLE

VersSource: Space-Track

Epoch: Sep 14, 2026, 04:35 UTC

1 41379U 00055JY  26257.19137019  .00004677  00000-0  12326-2 0  9997
2 41379  98.8486  46.7818 0023984 172.5466 187.6087 14.49331273555302

Volg NOAA 16 DEB in realtime met AllMySat

Download on the App Store